Location: *
(45.5667°S, 177.5167°W)
Time: 22:36:41
(UTC+00:00)

SMAP - Pass Details

Date: 29 May 2022
Orbit: 681 x 683 km, 98.1° (Epoch: 24 June)

Event Time Altitude Azimuth Distance (km) Brightness Sun altitude
Exits shadow 06:44:42 17° 181° (S) 1,716 5.0 -25.1°
Maximum altitude 06:48:07 51° 251° (WSW) 876 3.8 -25.7°
Drops below altitude 10° 06:52:39 10° 326° (NW) 2,139 6.1 -26.5°
Sets 06:54:55 0° 331° (NNW) 3,047 6.9 -26.9°
